Location: �A�n Sefra
(34.9681°N, 0.4346°E)
Time: 10:25:51
(UTC+00:00)

SKYMED 2 - Pass Details

Date: 21 October 2019
Orbit: 621 x 623 km, 97.9° (Epoch: 20 November)

Event Time Altitude Azimuth Distance (km) Brightness Sun altitude
Rises 17:41:04 0° 17° (NNE) 2,906 6.7 -5.8°
Reaches altitude 10° 17:43:18 10° 23° (NNE) 1,996 5.9 -6.2°
Maximum altitude 17:47:33 53° 100° (E) 769 3.7 -7.1°
Drops below altitude 10° 17:51:46 10° 177° (S) 1,981 6.2 -7.9°
Sets 17:53:59 0° 182° (S) 2,883 7.1 -8.4°
